Home   Weather   USA   Kaktovik   Past weeks
Flag for USA

Past Weather in Kaktovik, Alaska, USA — Yesterday and Last 2 Weeks

Currently: 19 °F. Light snow. Ice fog. (Weather station: Barter Island, USA). See more current weather

Past Weather in Kaktovik — Graph

°F

Kaktovik Temperature Yesterday

Maximum temperature yesterday: 29 °F (at 10:52 am)
Minimum temperature yesterday: 21 °F (at 10:52 pm)
Average temperature yesterday: 24 °F

High & Low Weather Summary for the Past Weeks

 TemperatureHumidityPressure
High34 °F (May 2, 1:52 pm)100% (May 3, 7:25 am)30.47 "Hg (May 3, 7:25 am)
Low6 °F (Apr 25, 4:52 am)56% (May 2, 1:52 pm)29.63 "Hg (Apr 29, 6:18 am)
Average20 °F87%30.11 "Hg
* Reported Apr 23 12:52 pm — May 8 12:52 pm, Kaktovik. Weather by CustomWeather, © 2021

Note: Actual official high and low records may vary slightly from our data, if they occured in-between our weather recording intervals... More about our weather records

Kaktovik Weather History for the Previous 24 Hours

Scroll right to see more
 ConditionsComfort  
Time TempWeatherWind HumidityBarometerVisibility
12:52 pm
Sat, May 8
20 °FLight snow. Ice fog.15 mph89%30.23 "Hg1 mi
12:23 pm19 °FLight snow. Ice fog.16 mph86%30.22 "Hg1 mi
11:55 am19 °FLight snow. Ice fog.17 mph86%30.21 "Hg1 mi
11:07 am19 °FLight snow. Ice fog.18 mph86%30.21 "Hg3 mi
10:57 am18 °FLight snow. Ice fog.20 mph93%30.21 "Hg2 mi
10:30 am18 °FLight snow. Ice fog.21 mph93%30.21 "Hg1 mi
9:52 am19 °FLight snow. Ice fog.18 mph88%30.22 "Hg3 mi
9:35 am18 °FLight snow. Ice fog.20 mph93%30.20 "Hg2 mi
9:15 am18 °FLight snow. Ice fog.16 mph93%30.20 "Hg2 mi
8:52 am19 °FLight snow. Ice fog.18 mph88%30.22 "Hg3 mi
8:14 am19 °FLight snow. Ice fog.20 mph86%30.19 "Hg1 mi
7:52 am19 °FLight snow. Ice fog.21 mph88%30.21 "Hg2 mi
7:30 am19 °FLight snow. Ice fog.20 mph93%30.19 "Hg1 mi
7:14 am19 °FLight snow. Ice fog.18 mph93%30.18 "Hg1 mi
7:07 am19 °FLight snow. Ice fog.17 mph93%30.18 "Hg1 mi
6:52 am19 °FLight snow. Ice fog.20 mph92%30.20 "Hg1 mi
6:23 am19 °FLight snow. Ice fog.20 mph93%30.18 "Hg1 mi
6:00 am19 °FLight snow. Ice fog.20 mph93%30.17 "Hg1 mi
5:33 am19 °FLight snow. Ice fog.21 mph93%30.17 "Hg1 mi
5:18 am19 °FLight snow. Ice fog.21 mph93%30.17 "Hg1 mi
4:56 am19 °FLight snow. Ice fog.21 mph93%30.17 "Hg1 mi
4:35 am19 °FLight snow. Ice fog.22 mph93%30.17 "Hg1 mi
4:24 am19 °FLight snow. Ice fog.22 mph93%30.17 "Hg1 mi
4:14 am19 °FLight snow. Ice fog.21 mph93%30.17 "Hg1 mi
3:52 am19 °FLight snow. Ice fog.23 mph96%30.19 "Hg1 mi
3:38 am19 °FLight snow. Ice fog.23 mph93%30.17 "Hg2 mi
2:52 am19 °FLow clouds.23 mph92%30.18 "Hg10 mi
1:52 am19 °FLow clouds.24 mph92%30.18 "Hg10 mi
12:52 am20 °FOvercast.24 mph92%30.18 "Hg10 mi
11:52 pm
Fri, May 7
21 °FOvercast.26 mph88%30.18 "Hg10 mi
10:52 pm21 °FOvercast.26 mph88%30.18 "Hg10 mi
9:52 pm22 °FOvercast.28 mph89%30.18 "Hg10 mi
8:52 pm23 °FOvercast.25 mph88%30.19 "Hg10 mi
7:52 pm24 °FOvercast.25 mph84%30.19 "Hg10 mi
6:52 pm24 °FOvercast.28 mph88%30.19 "Hg10 mi
6:04 pm25 °FOvercast.28 mph80%30.17 "Hg10 mi
4:52 pm27 °FMostly cloudy.31 mph78%30.19 "Hg10 mi
3:52 pm27 °FOvercast.31 mph81%30.19 "Hg10 mi
3:07 pm27 °FOvercast.26 mph80%30.18 "Hg10 mi
2:52 pm27 °FOvercast.29 mph85%30.20 "Hg10 mi
2:12 pm27 °FMostly cloudy.30 mph80%30.19 "Hg10 mi
1:52 pm27 °FOvercast.30 mph78%30.21 "Hg10 mi
Weather by CustomWeather, © 2021

See weather overview